Weather History for Ft. Stewart, GA

Change the Weather History Date:

Sunday, July 7, 2013

  Actual Average Record
Temperature  
Mean Temperature 80 °F -  
Max Temperature 88 °F 92 °F 102 °F (1977)
Min Temperature 71 °F 70 °F 63 °F (1970)
Cooling Degree Days 14    
Growing Degree Days 30 (Base 50)    
Moisture  
Dew Point 75 °F    
Average Humidity 87    
Maximum Humidity 100    
Minimum Humidity 65    
Precipitation  
Precipitation 0.00 in - - ()
Sea Level Pressure  
Sea Level Pressure 30.15 in    
Wind  
Wind Speed 3 mph (SE)    
Max Wind Speed 13 mph    
Max Gust Speed 20 mph    
Visibility 10 miles    
Events Rain    
Averages and records for this station are not official NWS values.
T = Trace of Precipitation, MM = Missing Value Source: NWS Daily Summary

Daily Weather History Graph

Daily Weather History Graph

Search for Another Location

Airport:

Trip Planner

Search our weather history database for the weather conditions in past years. The results will help you decide how hot, cold, wet, or windy it might be!

Date:

Astronomy

Jul. 07, 2013 Rise Set
Actual Time 6:26 AM EDT 8:35 PM EDT
Civil Twilight 5:58 AM EDT 9:03 PM EDT
Nautical Twilight 5:24 AM EDT 9:37 PM EDT
Astronomical Twilight 4:48 AM EDT 10:13 PM EDT
Moon 5:58 AM EDT (7/7) 8:02 PM EDT (7/7)
Length of Visible Light 15h 04m
Length of Day
14h 08m
Waning Crescent, 0% of the Moon is Illuminated
Jul 7
Waning Crescent
Jul 8
New
Jul 15
First Quarter
Jul 22
Full
Jul 29
Last Quarter

Hourly Weather History & Observations

Time (EDT) Temp. Heat Index Dew Point Humidity Pressure Visibility Wind Dir Wind Speed Gust Speed Precip Events Conditions
12:58 AM 75.2 °F - 75.2 °F 100% 30.16 in 10.0 mi Calm Calm - N/A   Clear
1:58 AM 74.1 °F - 74.1 °F 100% 30.16 in 10.0 mi Calm Calm - N/A   Clear
2:58 AM 73.6 °F - 73.6 °F 100% 30.15 in 10.0 mi Calm Calm - N/A   Clear
3:03 AM 73.4 °F - 73.4 °F 100% 30.13 in 10.0 mi Calm Calm - N/A Rain Light Rain
3:12 AM 73.4 °F - 73.4 °F 100% 30.14 in 10.0 mi Calm Calm - N/A   Clear
3:58 AM 73.6 °F - 73.6 °F 100% 30.14 in 10.0 mi Calm Calm - 0.00 in   Clear
4:58 AM 73.8 °F - 73.8 °F 100% 30.14 in 10.0 mi Calm Calm - N/A   Clear
5:58 AM 72.1 °F - 72.1 °F 100% 30.14 in 10.0 mi Calm Calm - N/A   Clear
6:58 AM 72.1 °F - 72.1 °F 100% 30.15 in 10.0 mi Calm Calm - N/A   Clear
7:08 AM 71.6 °F - 71.6 °F 100% 30.14 in 2.5 mi East 2.3 mph - N/A   Clear
7:18 AM 73.4 °F - 73.4 °F 100% 30.14 in 7.0 mi East 1.2 mph - N/A   Clear
7:58 AM 75.4 °F - 75.4 °F 100% 30.16 in 10.0 mi East 2.3 mph - N/A   Clear
8:58 AM 79.0 °F - 79.0 °F 100% 30.18 in 10.0 mi SSE 4.6 mph - N/A   Clear
9:18 AM 80.6 °F 88.1 °F 78.8 °F 94% 30.18 in 10.0 mi Variable 3.5 mph - N/A   Mostly Cloudy
9:43 AM 82.4 °F 90.9 °F 77.0 °F 84% 30.18 in 10.0 mi SSE 6.9 mph - N/A   Mostly Cloudy
9:48 AM 82.4 °F 90.9 °F 77.0 °F 84% 30.17 in 10.0 mi Variable 5.8 mph - N/A   Mostly Cloudy
9:53 AM 82.4 °F 90.9 °F 77.0 °F 84% 30.17 in 10.0 mi South 6.9 mph - N/A   Mostly Cloudy
9:58 AM 82.8 °F 91.6 °F 77.0 °F 83% 30.18 in 10.0 mi ESE 8.1 mph - N/A   Scattered Clouds
10:58 AM 83.8 °F 92.5 °F 75.9 °F 77% 30.18 in 10.0 mi SSE 8.1 mph - N/A   Scattered Clouds
11:58 AM 84.9 °F 93.7 °F 75.6 °F 73% 30.18 in 10.0 mi Variable 2.3 mph - N/A   Scattered Clouds
12:28 PM 84.2 °F 94.1 °F 77.0 °F 79% 30.17 in 10.0 mi SE 8.1 mph - N/A   Mostly Cloudy
12:38 PM 84.2 °F 94.1 °F 77.0 °F 79% 30.17 in 10.0 mi SSE 9.2 mph - N/A   Mostly Cloudy
12:58 PM 86.7 °F 97.3 °F 76.1 °F 71% 30.18 in 10.0 mi SSE 8.1 mph - N/A   Mostly Cloudy
1:23 PM 84.2 °F 94.1 °F 77.0 °F 79% 30.16 in 10.0 mi SSE 4.6 mph - N/A   Light Drizzle
1:25 PM 84.2 °F 94.1 °F 77.0 °F 79% 30.16 in 10.0 mi SSE 5.8 mph - N/A   Mostly Cloudy
1:28 PM 84.2 °F 94.1 °F 77.0 °F 79% 30.16 in 10.0 mi SSE 6.9 mph - N/A Rain Light Rain
1:41 PM 84.2 °F 94.1 °F 77.0 °F 79% 30.16 in 10.0 mi SSE 5.8 mph - N/A   Mostly Cloudy
1:58 PM 87.4 °F 98.2 °F 76.3 °F 69% 30.16 in 10.0 mi SSE 11.5 mph - 0.00 in   Mostly Cloudy
2:58 PM 88.9 °F 99.7 °F 75.6 °F 65% 30.14 in 10.0 mi SSE 11.5 mph - N/A   Partly Cloudy
3:58 PM 88.0 °F 97.5 °F 74.8 °F 65% 30.13 in 10.0 mi SE 9.2 mph - N/A   Scattered Clouds
4:58 PM 87.8 °F 98.1 °F 75.6 °F 67% 30.11 in 10.0 mi ESE 12.7 mph 19.6 mph N/A   Partly Cloudy
5:58 PM 86.4 °F 95.1 °F 74.5 °F 68% 30.11 in 10.0 mi SE 9.2 mph - N/A   Partly Cloudy
6:58 PM 84.9 °F 93.3 °F 75.0 °F 72% 30.11 in 10.0 mi SE 8.1 mph - N/A   Clear
7:58 PM 82.6 °F 89.7 °F 75.0 °F 78% 30.11 in 10.0 mi SE 4.6 mph - N/A   Clear
8:58 PM 78.3 °F - 74.7 °F 89% 30.12 in 10.0 mi SE 3.5 mph - N/A   Clear
9:39 PM 77.0 °F - 75.2 °F 94% 30.13 in 10.0 mi Calm Calm - N/A Rain Light Rain
9:49 PM 77.0 °F - 73.4 °F 89% 30.13 in 10.0 mi SSE 2.3 mph - N/A   Clear
9:58 PM 76.8 °F - 73.8 °F 90% 30.14 in 10.0 mi ESE 1.2 mph - 0.00 in   Clear
10:58 PM 74.5 °F - 73.9 °F 98% 30.17 in 10.0 mi Calm Calm - N/A   Clear
11:58 PM 73.4 °F - 73.4 °F 100% 30.18 in 10.0 mi Calm Calm - N/A   Clear